AVA323 MPTO-MROC

Flight info

Callsign AVA323
Flight time 0h 54m
Altitude 34000
Route PUDOS DCT ISEBA CUARE3I
Aircraft A320/M-SDE3FGHIRWY/LB1

Departure

Time 2026-05-08 17:55
Airport Tocumen International Airport (MPTO)

Arrival

Time 2026-05-08 18:49
Airport Juan Santamaría International Airport (MROC)
Time Latitude Longitude Altitude Speed Heading
2026-05-08 17:13 9.07001 -79.38652 31 ft 0 kts 121°
2026-05-08 17:50 9.07002 -79.38654 31 ft 2 kts 121°
2026-05-08 17:50 9.07012 -79.38671 31 ft 4 kts 116°
2026-05-08 17:50 9.07018 -79.38683 31 ft 0 kts 117°
2026-05-08 17:52 9.07019 -79.38677 31 ft 2 kts 81°
2026-05-08 17:52 9.07059 -79.38669 31 ft 10 kts 14°
2026-05-08 17:53 9.07115 -79.38642 31 ft 8 kts 29°
2026-05-08 17:53 9.07164 -79.38614 32 ft 11 kts 28°
2026-05-08 17:53 9.07247 -79.38573 34 ft 14 kts 24°
2026-05-08 17:53 9.07332 -79.38557 36 ft 11 kts 334°
2026-05-08 17:54 9.07360 -79.38593 42 ft 5 kts 301°
2026-05-08 17:54 9.07391 -79.38643 47 ft 5 kts 304°
2026-05-08 17:54 9.07422 -79.38645 48 ft 9 kts 16°
2026-05-08 17:54 9.07590 -79.38546 49 ft 61 kts 31°
2026-05-08 17:55 9.08156 -79.38205 46 ft 126 kts 31°
2026-05-08 17:55 9.09052 -79.37655 154 ft 165 kts 30°
2026-05-08 17:55 9.10021 -79.37075 870 ft 160 kts 28°
2026-05-08 17:55 9.11001 -79.36541 1480 ft 164 kts 28°
2026-05-08 17:56 9.12035 -79.35921 1870 ft 181 kts 30°
2026-05-08 17:56 9.13174 -79.35229 2185 ft 205 kts 28°
2026-05-08 17:56 9.14466 -79.34449 2521 ft 228 kts 30°
2026-05-08 17:56 9.15895 -79.33582 2923 ft 250 kts 30°
2026-05-08 17:57 9.17407 -79.32663 3640 ft 257 kts 31°
2026-05-08 17:57 9.18942 -79.31733 4518 ft 259 kts 32°
2026-05-08 17:57 9.20509 -79.30788 5278 ft 265 kts 30°
2026-05-08 17:57 9.22272 -79.30215 6097 ft 271 kts
2026-05-08 17:58 9.24149 -79.30455 6938 ft 279 kts 342°
2026-05-08 17:58 9.25809 -79.31511 7712 ft 290 kts 317°
2026-05-08 17:58 9.26895 -79.33251 8463 ft 300 kts 290°
2026-05-08 17:58 9.27163 -79.35367 9228 ft 307 kts 271°
2026-05-08 17:59 9.27166 -79.37547 9936 ft 312 kts 271°
2026-05-08 17:59 9.27159 -79.39760 10626 ft 317 kts 271°
2026-05-08 17:59 9.27149 -79.42007 11288 ft 322 kts 271°
2026-05-08 17:59 9.27141 -79.44292 11958 ft 327 kts 271°
2026-05-08 18:00 9.27137 -79.46608 12626 ft 332 kts 272°
2026-05-08 18:00 9.27131 -79.51354 13843 ft 344 kts 272°
2026-05-08 18:00 9.27138 -79.53786 14438 ft 346 kts 274°
2026-05-08 18:01 9.27482 -79.56193 14998 ft 350 kts 287°
2026-05-08 18:01 9.28160 -79.58627 15129 ft 369 kts 289°
2026-05-08 18:01 9.28898 -79.61163 15430 ft 380 kts 289°
2026-05-08 18:01 9.29659 -79.63745 15948 ft 385 kts 288°
2026-05-08 18:02 9.30425 -79.66349 16546 ft 387 kts 288°
2026-05-08 18:02 9.30932 -79.68081 16944 ft 388 kts 288°
2026-05-08 18:02 9.31952 -79.71592 17743 ft 390 kts 288°
2026-05-08 18:02 9.32717 -79.74236 18289 ft 392 kts 288°
2026-05-08 18:03 9.33485 -79.76895 18773 ft 394 kts 288°
2026-05-08 18:03 9.34255 -79.79569 19231 ft 397 kts 288°
2026-05-08 18:03 9.35027 -79.82258 19693 ft 399 kts 287°
2026-05-08 18:03 9.35597 -79.85024 20129 ft 404 kts 277°
2026-05-08 18:04 9.35678 -79.87877 20562 ft 408 kts 266°
2026-05-08 18:04 9.35268 -79.90732 21002 ft 411 kts 257°
2026-05-08 18:04 9.34605 -79.93557 21419 ft 415 kts 257°
2026-05-08 18:04 9.33936 -79.96411 21821 ft 418 kts 257°
2026-05-08 18:05 9.33264 -79.99284 22202 ft 421 kts 257°
2026-05-08 18:05 9.32586 -80.02181 22593 ft 425 kts 257°
2026-05-08 18:05 9.31904 -80.05101 22977 ft 428 kts 257°
2026-05-08 18:05 9.31220 -80.08042 23374 ft 431 kts 257°
2026-05-08 18:06 9.30532 -80.11008 23711 ft 434 kts 257°
2026-05-08 18:06 9.29837 -80.13985 24034 ft 436 kts 257°
2026-05-08 18:06 9.29134 -80.16978 24377 ft 438 kts 257°
2026-05-08 18:06 9.28430 -80.19978 24719 ft 439 kts 257°
2026-05-08 18:07 9.27721 -80.22993 25063 ft 441 kts 257°
2026-05-08 18:07 9.27009 -80.26020 25417 ft 443 kts 257°
2026-05-08 18:07 9.26296 -80.29055 25764 ft 444 kts 257°
2026-05-08 18:07 9.25581 -80.32101 26110 ft 446 kts 257°
2026-05-08 18:08 9.24859 -80.35163 26464 ft 447 kts 257°
2026-05-08 18:08 9.24137 -80.38231 26776 ft 450 kts 257°
2026-05-08 18:08 9.23410 -80.41319 27108 ft 452 kts 257°
2026-05-08 18:08 9.22680 -80.44415 27433 ft 453 kts 257°
2026-05-08 18:09 9.21944 -80.47524 27761 ft 455 kts 257°
2026-05-08 18:09 9.21207 -80.50644 28056 ft 457 kts 257°
2026-05-08 18:09 9.20470 -80.53777 28383 ft 458 kts 257°
2026-05-08 18:09 9.19730 -80.56919 28711 ft 460 kts 257°
2026-05-08 18:10 9.18985 -80.60069 29045 ft 461 kts 257°
2026-05-08 18:10 9.18238 -80.63228 29372 ft 462 kts 257°
2026-05-08 18:10 9.17488 -80.66396 29685 ft 464 kts 257°
2026-05-08 18:10 9.16734 -80.69580 29990 ft 466 kts 257°
2026-05-08 18:11 9.15979 -80.72773 30248 ft 467 kts 257°
2026-05-08 18:11 9.15228 -80.75977 30496 ft 468 kts 257°
2026-05-08 18:11 9.14475 -80.79188 30737 ft 470 kts 257°
2026-05-08 18:11 9.13713 -80.82410 30975 ft 471 kts 257°
2026-05-08 18:12 9.12947 -80.85637 31218 ft 472 kts 257°
2026-05-08 18:12 9.12180 -80.88871 31477 ft 473 kts 257°
2026-05-08 18:12 9.11413 -80.92104 31826 ft 472 kts 257°
2026-05-08 18:12 9.10650 -80.95326 32181 ft 470 kts 257°
2026-05-08 18:13 9.09888 -80.98540 32511 ft 469 kts 257°
2026-05-08 18:13 9.09222 -81.01766 32852 ft 468 kts 263°
2026-05-08 18:13 9.09026 -81.05040 33219 ft 466 kts 272°
2026-05-08 18:13 9.09336 -81.08293 33553 ft 464 kts 281°
2026-05-08 18:14 9.10088 -81.11470 33842 ft 464 kts 285°
2026-05-08 18:14 9.10900 -81.14615 33914 ft 458 kts 285°
2026-05-08 18:14 9.12460 -81.20750 33924 ft 446 kts 285°
2026-05-08 18:15 9.13985 -81.26822 33923 ft 445 kts 285°
2026-05-08 18:15 9.15504 -81.32887 33922 ft 445 kts 285°
2026-05-08 18:16 9.17045 -81.38949 33922 ft 444 kts 285°
2026-05-08 18:16 9.18582 -81.45008 33924 ft 444 kts 284°
2026-05-08 18:17 9.20100 -81.51024 33922 ft 444 kts 284°
2026-05-08 18:17 9.21626 -81.57077 33919 ft 444 kts 285°
2026-05-08 18:18 9.23157 -81.63132 33921 ft 444 kts 285°
2026-05-08 18:18 9.24681 -81.69178 33918 ft 444 kts 284°
2026-05-08 18:19 9.26217 -81.75233 33917 ft 444 kts 284°
2026-05-08 18:19 9.27491 -81.80309 33918 ft 444 kts 284°
2026-05-08 18:20 9.29005 -81.86339 33920 ft 444 kts 284°
2026-05-08 18:20 9.30529 -81.92389 33923 ft 443 kts 284°
2026-05-08 18:21 9.32045 -81.98443 33926 ft 443 kts 284°
2026-05-08 18:21 9.33555 -82.04492 33931 ft 443 kts 284°
2026-05-08 18:22 9.35069 -82.10543 33934 ft 443 kts 284°
2026-05-08 18:22 9.36591 -82.16592 33937 ft 443 kts 284°
2026-05-08 18:23 9.38102 -82.22643 33939 ft 443 kts 284°
2026-05-08 18:23 9.39610 -82.28697 33933 ft 444 kts 284°
2026-05-08 18:24 9.41133 -82.34758 33930 ft 444 kts 284°
2026-05-08 18:24 9.42651 -82.40831 33931 ft 445 kts 284°
2026-05-08 18:25 9.44168 -82.46909 33922 ft 445 kts 284°
2026-05-08 18:25 9.45682 -82.52983 33915 ft 445 kts 284°
2026-05-08 18:26 9.47192 -82.59061 33920 ft 445 kts 284°
2026-05-08 18:26 9.48702 -82.65145 33920 ft 445 kts 284°
2026-05-08 18:27 9.49962 -82.70196 33922 ft 445 kts 284°
2026-05-08 18:27 9.51735 -82.77305 33929 ft 445 kts 284°
2026-05-08 18:28 9.53252 -82.83390 33918 ft 446 kts 285°
2026-05-08 18:28 9.54769 -82.89480 33930 ft 446 kts 285°
2026-05-08 18:29 9.56328 -82.95566 33933 ft 446 kts 285°
2026-05-08 18:29 9.57883 -83.01628 33618 ft 441 kts 285°
2026-05-08 18:30 9.58647 -83.04620 33365 ft 438 kts 285°
2026-05-08 18:30 9.59403 -83.07605 33112 ft 436 kts 285°
2026-05-08 18:30 9.60154 -83.10573 32865 ft 434 kts 285°
2026-05-08 18:30 9.60989 -83.13503 32616 ft 432 kts 291°
2026-05-08 18:31 9.62007 -83.16351 32211 ft 428 kts 291°
2026-05-08 18:31 9.63018 -83.19177 31716 ft 426 kts 291°
2026-05-08 18:31 9.64023 -83.21988 31222 ft 423 kts 291°
2026-05-08 18:31 9.65021 -83.24788 30744 ft 421 kts 291°
2026-05-08 18:32 9.66013 -83.27575 30273 ft 419 kts 291°
2026-05-08 18:32 9.66996 -83.30347 29766 ft 417 kts 291°
2026-05-08 18:32 9.67973 -83.33099 29315 ft 413 kts 291°
2026-05-08 18:32 9.68941 -83.35825 28875 ft 409 kts 291°
2026-05-08 18:33 9.69900 -83.38527 28446 ft 405 kts 291°
2026-05-08 18:33 9.70846 -83.41198 28022 ft 401 kts 291°
2026-05-08 18:33 9.71785 -83.43852 27581 ft 398 kts 291°
2026-05-08 18:33 9.72713 -83.46481 27165 ft 395 kts 291°
2026-05-08 18:34 9.73638 -83.49094 26719 ft 393 kts 291°
2026-05-08 18:34 9.74498 -83.51720 26272 ft 392 kts 285°
2026-05-08 18:34 9.74914 -83.54448 25813 ft 393 kts 274°
2026-05-08 18:34 9.74834 -83.57232 25304 ft 398 kts 266°
2026-05-08 18:35 9.74625 -83.60034 24793 ft 400 kts 266°
2026-05-08 18:35 9.74419 -83.62844 24293 ft 400 kts 266°
2026-05-08 18:35 9.74218 -83.65659 23786 ft 401 kts 266°
2026-05-08 18:35 9.74021 -83.68486 23221 ft 402 kts 266°
2026-05-08 18:36 9.73824 -83.71312 22705 ft 402 kts 266°
2026-05-08 18:36 9.73624 -83.74129 22200 ft 400 kts 266°
2026-05-08 18:36 9.73422 -83.76940 21681 ft 400 kts 266°
2026-05-08 18:36 9.73220 -83.79749 21177 ft 399 kts 266°
2026-05-08 18:37 9.73020 -83.82536 20740 ft 397 kts 266°
2026-05-08 18:37 9.72821 -83.85326 20328 ft 393 kts 266°
2026-05-08 18:37 9.72619 -83.88038 20056 ft 379 kts 266°
2026-05-08 18:37 9.72418 -83.90659 19544 ft 369 kts 266°
2026-05-08 18:38 9.72219 -83.93222 18994 ft 360 kts 266°
2026-05-08 18:38 9.72023 -83.95723 18409 ft 354 kts 266°
2026-05-08 18:38 9.71831 -83.98196 17793 ft 348 kts 266°
2026-05-08 18:38 9.71642 -84.00630 17317 ft 346 kts 266°
2026-05-08 18:39 9.71453 -84.03049 16888 ft 343 kts 266°
2026-05-08 18:39 9.71267 -84.05452 16457 ft 342 kts 266°
2026-05-08 18:39 9.71081 -84.07857 15990 ft 343 kts 266°
2026-05-08 18:39 9.70894 -84.10276 15616 ft 343 kts 266°
2026-05-08 18:40 9.70705 -84.12685 15204 ft 343 kts 266°
2026-05-08 18:40 9.70517 -84.15084 14968 ft 341 kts 266°
2026-05-08 18:40 9.70335 -84.17451 14651 ft 340 kts 266°
2026-05-08 18:40 9.70152 -84.19824 14065 ft 337 kts 267°
2026-05-08 18:41 9.70103 -84.22189 13391 ft 334 kts 278°
2026-05-08 18:41 9.70568 -84.24463 12915 ft 326 kts 291°
2026-05-08 18:41 9.71451 -84.26579 12483 ft 327 kts 297°
2026-05-08 18:41 9.72377 -84.28673 12175 ft 324 kts 296°
2026-05-08 18:42 9.73294 -84.30764 11760 ft 324 kts 295°
2026-05-08 18:42 9.74200 -84.32842 11509 ft 320 kts 296°
2026-05-08 18:42 9.75099 -84.34902 11162 ft 319 kts 295°
2026-05-08 18:42 9.75996 -84.36956 10789 ft 318 kts 295°
2026-05-08 18:43 9.76896 -84.39012 10347 ft 321 kts 295°
2026-05-08 18:43 9.77799 -84.41069 10112 ft 316 kts 295°
2026-05-08 18:43 9.78765 -84.43024 9955 ft 305 kts 307°
2026-05-08 18:43 9.80231 -84.44511 9805 ft 294 kts 328°
2026-05-08 18:44 9.82080 -84.45351 9341 ft 292 kts 348°
2026-05-08 18:44 9.84050 -84.45867 8918 ft 293 kts 348°
2026-05-08 18:44 9.86041 -84.46319 8493 ft 292 kts 358°
2026-05-08 18:44 9.88046 -84.46115 7865 ft 294 kts 21°
2026-05-08 18:45 9.89795 -84.45062 7338 ft 293 kts 45°
2026-05-08 18:45 9.90952 -84.43403 6994 ft 290 kts 66°
2026-05-08 18:45 9.91682 -84.41511 6638 ft 286 kts 70°
2026-05-08 18:45 9.92372 -84.39630 6298 ft 284 kts 69°
2026-05-08 18:46 9.93061 -84.37783 5935 ft 273 kts 68°
2026-05-08 18:46 9.93723 -84.36021 5710 ft 262 kts 68°
2026-05-08 18:46 9.94354 -84.34340 5381 ft 249 kts 68°
2026-05-08 18:46 9.94955 -84.32733 5077 ft 238 kts 68°
2026-05-08 18:47 9.95515 -84.31235 4808 ft 218 kts 68°
2026-05-08 18:47 9.96026 -84.29870 4568 ft 197 kts 68°
2026-05-08 18:47 9.96490 -84.28633 4406 ft 180 kts 71°
2026-05-08 18:47 9.96911 -84.27522 4205 ft 158 kts 71°
2026-05-08 18:48 9.97295 -84.26514 3973 ft 149 kts 71°
2026-05-08 18:48 9.97660 -84.25553 3712 ft 144 kts 71°
2026-05-08 18:48 9.98008 -84.24615 3510 ft 141 kts 71°
2026-05-08 18:48 9.98355 -84.23685 3304 ft 142 kts 71°
2026-05-08 18:49 9.98703 -84.22748 3105 ft 142 kts 72°
2026-05-08 18:49 9.99044 -84.21819 2973 ft 133 kts 72°
2026-05-08 18:49 9.99313 -84.21091 3008 ft 85 kts 69°
2026-05-08 18:49 9.99462 -84.20691 3030 ft 37 kts 69°
2026-05-08 18:50 9.99543 -84.20479 3037 ft 19 kts 69°
2026-05-08 18:50 9.99587 -84.20427 3039 ft 6 kts
2026-05-08 18:50 9.99635 -84.20438 3035 ft 9 kts
2026-05-08 18:50 9.99669 -84.20398 3036 ft 3 kts 68°
2026-05-08 18:51 9.99673 -84.20389 3034 ft 0 kts 68°
2026-05-08 18:51 9.99676 -84.20380 3035 ft 5 kts 68°
2026-05-08 18:51 9.99700 -84.20368 3037 ft 3 kts 357°
2026-05-08 18:51 9.99711 -84.20373 3034 ft 1 kts 337°
2026-05-08 18:52 9.99732 -84.20381 3033 ft 3 kts 338°
2026-05-08 18:52 9.99736 -84.20383 3034 ft 0 kts 339°